• In Belarus
  • List of Countries
  • For 7 days
  • Water Temperature
  • Satellite Maps
  • Weather Map
  • Weather Widgets
  • user-avatar
    Login

    Hourly Weather Sychevo

    Today, 18 June, Monday

    Time Temperature Precipitation Wind Pressure Humidity
    00:00 +15°C° 0 mm 1 mps 744 mmHg 88%
    01:00 +15°C° 0 mm 1 mps 744 mmHg 89%
    02:00 +14°C° 0 mm 1 mps 743 mmHg 90%
    03:00 +15°C° 0 mm 1 mps 743 mmHg 89%
    04:00 +15°C° 0 mm 1 mps 743 mmHg 88%
    05:00 +16°C° 0 mm 1 mps 743 mmHg 86%
    06:00 +18°C° 0 mm 2 mps 744 mmHg 80%
    07:00 +20°C° 0 mm 2 mps 744 mmHg 74%
    08:00 +23°C° 0 mm 2 mps 744 mmHg 67%
    09:00 +24°C° 0 mm 2 mps 743 mmHg 62%
    10:00 +25°C° 0 mm 2 mps 743 mmHg 58%
    11:00 +26°C° 0 mm 2 mps 743 mmHg 53%
    12:00 +26°C° 0.1 mm 2 mps 743 mmHg 54%
    13:00 +26°C° 0.1 mm 2 mps 743 mmHg 55%
    14:00 +27°C° 0.1 mm 2 mps 743 mmHg 56%
    15:00 +26°C° 0.4 mm 2 mps 743 mmHg 62%
    16:00 +26°C° 0.4 mm 2 mps 742 mmHg 67%
    17:00 +25°C° 0.4 mm 2 mps 742 mmHg 73%
    18:00 +24°C° 0.2 mm 2 mps 742 mmHg 78%
    19:00 +22°C° 0.2 mm 1 mps 742 mmHg 83%
    20:00 +20°C° 0.2 mm 1 mps 742 mmHg 88%
    21:00 +20°C° 0 mm 1 mps 742 mmHg 89%
    22:00 +19°C° 0 mm 1 mps 742 mmHg 91%
    23:00 +18°C° 0 mm 1 mps 742 mmHg 92%

    Tomorrow, 19 June, Tuesday

    Time Temperature Precipitation Wind Pressure Humidity
    00:00 +18°C° 0.1 mm 1 mps 742 mmHg 93%
    01:00 +18°C° 0.1 mm 1 mps 742 mmHg 94%
    02:00 +18°C° 0.1 mm 1 mps 742 mmHg 95%
    03:00 +18°C° 0.3 mm 1 mps 742 mmHg 95%
    04:00 +18°C° 0.3 mm 1 mps 742 mmHg 95%
    05:00 +18°C° 0.3 mm 1 mps 742 mmHg 96%
    06:00 +20°C° 0.1 mm 1 mps 742 mmHg 90%
    07:00 +21°C° 0.1 mm 2 mps 742 mmHg 85%
    08:00 +23°C° 0.1 mm 2 mps 742 mmHg 80%
    09:00 +24°C° 0 mm 2 mps 742 mmHg 71%
    10:00 +26°C° 0 mm 3 mps 742 mmHg 61%
    11:00 +27°C° 0 mm 3 mps 741 mmHg 52%
    12:00 +27°C° 0.2 mm 3 mps 741 mmHg 55%
    13:00 +27°C° 0.2 mm 4 mps 741 mmHg 59%
    14:00 +27°C° 0.2 mm 4 mps 741 mmHg 62%
    15:00 +26°C° 0.3 mm 4 mps 740 mmHg 64%
    16:00 +26°C° 0.3 mm 3 mps 740 mmHg 66%
    17:00 +25°C° 0.3 mm 3 mps 740 mmHg 68%
    18:00 +24°C° 0 mm 3 mps 740 mmHg 71%
    19:00 +21°C° 0 mm 3 mps 740 mmHg 74%
    20:00 +19°C° 0 mm 3 mps 740 mmHg 77%
    21:00 +18°C° 0 mm 3 mps 740 mmHg 79%
    22:00 +17°C° 0 mm 3 mps 740 mmHg 80%
    23:00 +16°C° 0 mm 3 mps 741 mmHg 82%

    Day after tomorrow, 20 June, Wednesday

    Time Temperature Precipitation Wind Pressure Humidity
    00:00 +16°C° 0 mm 3 mps 741 mmHg 84%
    01:00 +14°C° 0 mm 3 mps 741 mmHg 87%
    02:00 +14°C° 0 mm 3 mps 741 mmHg 89%
    03:00 +14°C° 0 mm 3 mps 741 mmHg 89%
    04:00 +16°C° 0 mm 3 mps 741 mmHg 89%
    05:00 +16°C° 0 mm 3 mps 742 mmHg 89%
    06:00 +17°C° 0 mm 3 mps 742 mmHg 82%
    07:00 +18°C° 0 mm 3 mps 742 mmHg 76%
    08:00 +20°C° 0 mm 3 mps 742 mmHg 70%
    09:00 +20°C° 0 mm 4 mps 742 mmHg 66%
    10:00 +21°C° 0 mm 4 mps 742 mmHg 63%
    11:00 +22°C° 0 mm 4 mps 742 mmHg 60%
    12:00 +22°C° 0 mm 4 mps 742 mmHg 58%
    13:00 +23°C° 0 mm 5 mps 742 mmHg 57%
    14:00 +23°C° 0 mm 5 mps 742 mmHg 56%
    15:00 +23°C° 0 mm 4 mps 742 mmHg 58%
    16:00 +23°C° 0 mm 4 mps 741 mmHg 59%
    17:00 +23°C° 0 mm 4 mps 741 mmHg 61%
    18:00 +21°C° 0 mm 3 mps 742 mmHg 66%
    19:00 +19°C° 0 mm 3 mps 742 mmHg 71%
    20:00 +18°C° 0 mm 3 mps 742 mmHg 75%
    21:00 +16°C° 0 mm 2 mps 742 mmHg 78%
    22:00 +15°C° 0 mm 2 mps 742 mmHg 81%
    23:00 +14°C° 0 mm 2 mps 742 mmHg 84%

    21 June, Thursday

    Time Temperature Precipitation Wind Pressure Humidity
    00:00 +14°C° 0 mm 2 mps 743 mmHg 86%
    01:00 +13°C° 0 mm 2 mps 743 mmHg 89%
    02:00 +12°C° 0 mm 2 mps 743 mmHg 91%
    03:00 +13°C° 0 mm 2 mps 743 mmHg 89%
    04:00 +13°C° 0 mm 2 mps 743 mmHg 86%
    05:00 +14°C° 0 mm 1 mps 743 mmHg 84%
    06:00 +16°C° 0 mm 2 mps 743 mmHg 77%
    07:00 +17°C° 0 mm 2 mps 743 mmHg 69%
    08:00 +19°C° 0 mm 2 mps 743 mmHg 62%
    09:00 +20°C° 0 mm 3 mps 743 mmHg 59%
    10:00 +22°C° 0 mm 3 mps 742 mmHg 56%
    11:00 +24°C° 0 mm 3 mps 742 mmHg 53%
    12:00 +24°C° 0 mm 3 mps 742 mmHg 52%
    13:00 +25°C° 0 mm 4 mps 742 mmHg 51%
    14:00 +26°C° 0 mm 4 mps 741 mmHg 50%
    15:00 +26°C° 0 mm 3 mps 741 mmHg 53%
    16:00 +26°C° 0 mm 3 mps 741 mmHg 56%
    17:00 +26°C° 0 mm 3 mps 740 mmHg 59%
    18:00 +24°C° 0 mm 3 mps 740 mmHg 67%
    19:00 +21°C° 0 mm 2 mps 740 mmHg 75%
    20:00 +19°C° 0 mm 2 mps 740 mmHg 82%
    21:00 +18°C° 0 mm 2 mps 740 mmHg 86%
    22:00 +17°C° 0 mm 2 mps 740 mmHg 90%
    23:00 +16°C° 0 mm 2 mps 739 mmHg 94%

    22 June, Friday

    Time Temperature Precipitation Wind Pressure Humidity
    00:00 +16°C° 0 mm 3 mps 739 mmHg 94%
    01:00 +14°C° 0 mm 3 mps 739 mmHg 94%
    02:00 +14°C° 0 mm 3 mps 738 mmHg 93%
    03:00 +16°C° 0 mm 3 mps 738 mmHg 91%
    04:00 +15°C° 0 mm 4 mps 738 mmHg 88%
    05:00 +17°C° 0 mm 4 mps 737 mmHg 85%
    06:00 +19°C° 0 mm 5 mps 737 mmHg 80%
    07:00 +21°C° 0 mm 5 mps 736 mmHg 75%
    08:00 +22°C° 0 mm 6 mps 736 mmHg 69%
    09:00 +23°C° 0.1 mm 6 mps 736 mmHg 68%
    10:00 +24°C° 0.1 mm 6 mps 736 mmHg 67%
    11:00 +26°C° 0.1 mm 6 mps 736 mmHg 66%
    12:00 +26°C° 0.5 mm 6 mps 736 mmHg 69%
    13:00 +26°C° 0.5 mm 6 mps 735 mmHg 72%
    14:00 +26°C° 0.5 mm 5 mps 735 mmHg 75%
    15:00 +25°C° 1.4 mm 5 mps 735 mmHg 79%
    16:00 +25°C° 1.4 mm 4 mps 735 mmHg 83%
    17:00 +23°C° 1.4 mm 4 mps 735 mmHg 88%
    18:00 +22°C° 1.9 mm 3 mps 735 mmHg 90%
    19:00 +21°C° 1.9 mm 3 mps 735 mmHg 92%
    20:00 +20°C° 1.9 mm 2 mps 735 mmHg 94%
    21:00 +19°C° 0.4 mm 2 mps 735 mmHg 95%
    22:00 +18°C° 0.4 mm 2 mps 735 mmHg 96%
    23:00 +19°C° 0.4 mm 1 mps 735 mmHg 96%

    23 June, Saturday

    Time Temperature Precipitation Wind Pressure Humidity
    00:00 +17°C° 0.1 mm 2 mps 735 mmHg 96%
    01:00 +17°C° 0.1 mm 2 mps 735 mmHg 95%
    02:00 +16°C° 0.1 mm 3 mps 736 mmHg 95%
    03:00 +16°C° 0.2 mm 3 mps 736 mmHg 95%
    04:00 +14°C° 0.2 mm 3 mps 736 mmHg 95%
    05:00 +14°C° 0.2 mm 4 mps 736 mmHg 95%
    06:00 +13°C° 0.8 mm 3 mps 736 mmHg 95%
    07:00 +13°C° 0.8 mm 3 mps 736 mmHg 95%
    08:00 +12°C° 0.8 mm 3 mps 736 mmHg 95%
    09:00 +12°C° 0.7 mm 3 mps 737 mmHg 95%
    10:00 +13°C° 0.7 mm 2 mps 737 mmHg 95%
    11:00 +13°C° 0.7 mm 2 mps 737 mmHg 95%
    12:00 +13°C° 0.3 mm 2 mps 737 mmHg 95%
    13:00 +14°C° 0.3 mm 2 mps 738 mmHg 94%
    14:00 +14°C° 0.3 mm 2 mps 738 mmHg 94%
    15:00 +14°C° 0.2 mm 1 mps 738 mmHg 94%
    16:00 +14°C° 0.2 mm 1 mps 738 mmHg 95%
    17:00 +13°C° 0.2 mm 1 mps 738 mmHg 95%
    18:00 +13°C° 0.2 mm 1 mps 738 mmHg 95%
    19:00 +13°C° 0.2 mm 1 mps 738 mmHg 95%
    20:00 +13°C° 0.2 mm 1 mps 738 mmHg 95%
    21:00 +12°C° 0 mm 1 mps 738 mmHg 95%
    22:00 +11°C° 0 mm 1 mps 739 mmHg 96%
    23:00 +9°C° 0 mm 2 mps 739 mmHg 96%
    Show more